Location: Gleizolles
(44.4833°N, 6.7667°E)
Time: 15:58:20
(UTC+00:00)

Cosmos 2151 - Pass Details

Date: 09 April 2020
Orbit: 582 x 600 km, 82.5° (Epoch: 27 May)

Event Time Altitude Azimuth Distance (km) Brightness Sun altitude
Rises 21:02:22 0° 349° (N) 2,816 7.3 -27.3°
Reaches altitude 10° 21:04:34 10° 348° (NNW) 1,912 6.3 -27.6°
Enters shadow 21:07:30 44° 339° (NNW) 818 4.0 -28.0°
